STARLINK-34409

Last updated on Thu Jul 03 2025 00:02:07 GMT+0000 (Coordinated Universal Time)

1 64485U 25133P 25183.58335648 -.01193579 00000+0 -58513-2 0 9992 2 64485 53.1552 210.7923 0000775 64.8596 301.3122 15.84034375 2724
UTC large
Height (km)
Speed (km/s)
/
Latitude / Longitude
Inclination (degrees)
Orbital Period (minutes)
Azimuth
Elevation
Range (km)
Doppler Factor

Next 0 passes for location: London (51.5072 / 0.1276)

Sorry there are no passes over London.